Location: Newark
(25.0000°N, 73.5000°E)
Time: 16:32:20
(UTC+00:00)

Vanguard 1 Rocket - Visible Passes

Search period start: 26 February 2021 00:00
Search period end: 08 March 2021 00:00
Orbit: 654 x 4222 km, 34.3° (Epoch: 25 February)

Date Brightness Start Highest point End Pass type
(mag) Time Alt. Az. Time Alt. Az. Time Alt. Az.
26 Feb11.418:12:22ENE18:12:22ENE17:30:43SSWvisible
26 Feb 10.7 20:29:36 56° ENE 20:29:36 56° ENE 20:46:04 10° ENE visible
26 Feb 10.4 22:46:50 50° WNW 22:56:18 69° NNW 23:16:12 10° ENE visible
27 Feb 10.2 01:06:38 10° WNW 01:31:03 69° NNE 01:44:20 10° E visible
27 Feb 11.3 19:21:56 30° ENE 19:21:56 30° ENE 19:31:20 10° ENE visible
27 Feb 10.4 21:39:10 77° NNW 21:39:44 77° NNW 22:02:57 10° ENE visible
27 Feb 10.4 23:56:24 23° WNW 00:15:49 66° N 00:32:17 10° E visible
28 Feb 11.3 18:14:14 12° ENE 18:14:14 12° ENE 18:15:17 10° ENE visible
28 Feb 10.7 20:31:28 59° ENE 20:31:28 59° ENE 20:49:01 10° ENE visible
28 Feb 10.5 22:48:42 45° WNW 22:59:34 67° N 23:19:33 10° ENE visible
01 Mar 10.2 01:09:35 10° WNW 01:34:19 75° NNE 01:47:44 10° ESE visible
01 Mar 11.0 16:25:33 10° S 16:26:10 12° S 16:26:10 12° S visible
01 Mar 11.2 19:23:44 34° ENE 19:23:44 34° ENE 19:34:14 10° ENE visible
01 Mar 10.4 21:40:58 71° NW 21:42:46 72° NNW 22:06:07 10° ENE visible
01 Mar 10.4 23:58:11 20° WNW 00:19:10 68° N 00:35:44 10° E visible
02 Mar 11.2 18:15:59 14° ENE 18:15:59 14° ENE 18:18:24 10° ENE visible
02 Mar 10.6 20:33:12 62° NE 20:33:12 62° NE 20:51:58 10° ENE visible
02 Mar 10.5 22:50:26 41° WNW 23:02:54 66° N 23:22:57 10° E visible
03 Mar 10.8 16:27:10 10° SSW 16:29:14 16° S 16:29:14 16° S visible
03 Mar 11.1 19:25:26 37° ENE 19:25:26 37° ENE 19:37:05 10° ENE visible
03 Mar 10.4 21:42:39 66° NW 21:45:58 69° N 22:09:21 10° ENE visible
03 Mar 10.4 23:59:53 18° WNW 00:22:27 72° NNE 00:39:09 10° E visible
04 Mar 10.6 15:19:16 10° SSE 15:22:14 15° SSE 15:22:14 15° SSE visible
04 Mar 11.1 17:39:29 10° SW 18:17:39 17° ENE 18:21:19 10° ENE visible
04 Mar 10.6 20:34:52 64° NE 20:34:52 64° NE 20:55:00 10° ENE visible
04 Mar 10.6 22:52:05 37° WNW 23:06:14 68° N 23:26:22 10° E visible
05 Mar 10.5 16:29:11 10° SSW 17:09:51 - ENE 16:32:36 22° SSW visible
05 Mar 11.0 19:27:05 40° ENE 19:27:05 40° ENE 19:39:56 10° ENE visible
05 Mar 10.5 21:44:18 61° NW 21:49:15 67° N 22:12:41 10° E visible
06 Mar 10.4 00:01:31 15° WNW 00:25:35 78° NNE 00:42:29 10° ESE visible
06 Mar 10.3 15:20:21 10° S 15:25:45 23° SSE 15:25:45 23° SSE visible
06 Mar 11.0 17:42:09 10° SW 18:19:17 19° ENE 18:24:07 10° ENE visible
06 Mar 10.6 20:36:30 65° NNE 20:36:30 65° NNE 20:58:08 10° ENE visible
06 Mar 10.6 22:53:43 34° WNW 23:09:32 70° N 23:29:47 10° E visible
07 Mar 10.6 14:16:07 10° SE 14:18:58 11° ESE 14:18:58 11° ESE visible
07 Mar 10.3 16:31:31 10° SSW 17:11:30 - ENE 16:36:17 30° SSW visible
07 Mar 11.0 19:28:43 42° ENE 19:28:43 42° ENE 19:42:49 10° ENE visible
07 Mar 10.5 21:45:57 57° NW 21:52:35 67° N 22:16:03 10° E visible
